Location: Potomac
(46.8816°N, 113.5795°W)
Time: 11:38:40
(UTC+00:00)

Gurwin Techsat 1B - Pass Details

Date: 05 July 2022
Orbit: 812 x 813 km, 98.8° (Epoch: 09 August)

Event Time Altitude Azimuth Distance (km) Brightness Sun altitude
Rises 10:33:21 0° 12° (NNE) 3,347 13.0 -10.0°
Reaches altitude 10° 10:35:43 10° 10° (N) 2,411 12.1 -9.8°
Maximum altitude 10:41:01 70° 288° (WNW) 868 8.7 -9.2°
Drops below altitude 10° 10:46:16 10° 206° (SSW) 2,394 10.4 -8.6°
Enters shadow 10:46:27 - 206° (SSW) 2,462 10.5 -8.5°
